Temperature
15 15 15 15 14 14 14 14 14 14 14 14 14 13 13 13 13 13 13 13 13 13 13 13 13 13 13 13 13 13 13 13 14 14 14 14 14 14 15 15 15 15 15
16 15 15 15 15 14 14 14 14 14 14 14 14 14 13 13 13 13 13 13 13 13 13 13 13 13 13 13 13 13 13 13 13 14 14 14 14 14 14 14 15 15 15
16 15 15 15 15 14 14 14 14 14 14 14 14 14 13 13 13 13 13 13 13 13 13 13 13 13 13 13 13 13 13 13 13 14 14 14 14 14 14 14 14 14 14
16 15 15 15 15 14 14 14 14 14 14 14 14 14 13 13 13 13 13 13 13 13 13 13 13 13 13 13 13 13 13 13 13 13 13 14 14 14 14 14 14 14 14
16 16 16 15 15 15 14 14 14 14 14 13 14 13 13 13 13 13 13 13 13 13 13 13 13 13 13 13 13 13 13 13 13 13 13 13 13 13 13 13 14 14 14
16 16 16 15 15 15 14 14 14 14 14 13 13 13 13 13 13 13 14 14 13 13 13 13 13 13 13 13 13 13 13 13 13 13 13 13 13 13 13 13 13 13 13
17 16 16 15 15 15 14 14 14 14 14 14 13 13 13 13 14 14 14 14 14 13 13 13 13 13 13 13 13 13 13 13 13 13 13 13 13 13 13 13 13 13 13
17 17 16 15 15 15 14 14 14 14 14 14 14 13 13 13 14 14 14 14 14 13 13 13 13 13 13 13 13 13 13 13 13 13 13 13 13 13 13 13 13 13 13
17 17 16 16 15 15 15 14 14 14 14 14 13 13 13 13 14 14 14 14 14 13 13 13 13 13 13 13 13 13 13 13 13 12 12 13 13 13 13 12 12 12 12
17 17 16 16 15 15 15 15 14 14 14 14 14 13 13 13 13 14 14 14 13 13 13 13 13 13 13 13 13 13 13 13 12 12 12 13 12 12 12 12 12 12 12
18 17 16 16 16 15 15 15 14 14 14 14 14 14 13 13 13 13 13 13 13 13 13 13 13 13 13 13 13 13 13 12 12 12 12 12 12 12 12 12 12 12 12
18 17 16 16 16 15 15 15 14 14 14 14 14 14 13 13 13 13 13 13 13 13 13 13 13 13 13 12 12 12 12 12 12 12 12 12 12 12 12 12 12 12 12
18 17 16 16 16 15 15 15 14 14 14 14 14 14 13 13 13 13 13 13 13 13 12 12 12 12 12 12 12 12 12 12 12 11 11 11 11 11 11 11 11 11 11
17 17 16 16 15 15 15 15 14 14 14 14 14 13 13 13 13 13 12 12 12 12 12 12 12 12 11 11 11 11 11 11 11 11 11 11 11 11 11 11 11 11 11
17 17 16 16 15 15 15 14 14 14 14 14 14 13 13 13 13 12 12 12 12 12 11 11 11 11 11 11 11 11 10 10 10 10 10 10 10 10 10 10 10 10 10
17 16 16 16 15 15 15 14 14 14 14 13 13 13 13 13 12 12 12 12 11 11 11 11 10 10 10 10 10 10 10 10 9 9 9 9 9 9 9 9 9 9 9
17 17 16 16 15 15 15 14 14 13 13 13 13 12 12 12 12 12 11 11 11 11 10 10 10 9 9 9 9 9 9 9 9 9 8 8 8 9 9 9 9 9 9
17 16 16 16 15 15 14 14 14 13 13 13 12 12 12 12 11 11 11 11 10 10 9 9 9 9 8 8 8 8 8 8 8 8 8 8 8 8 8 8 8 8 8
16 16 16 15 15 14 14 14 13 13 13 12 12 11 11 11 11 10 10 10 9 9 9 8 8 8 8 7 7 7 7 7 7 7 7 7 7 7 7 7 6 6 6
15 16 15 15 14 14 13 13 13 12 12 12 11 11 11 10 10 9 9 9 8 8 8 8 8 7 7 7 7 6 6 6 6 6 6 6 6 6 6 6 6 5 5
15 15 15 14 14 13 13 12 12 12 11 11 11 10 10 10 9 9 9 8 8 8 7 7 7 7 7 6 6 6 6 6 5 5 5 5 5 5 5 5 4 4 4
14 14 14 13 13 12 12 12 12 11 11 11 10 10 9 9 9 8 8 8 7 7 7 7 6 6 6 6 5 5 5 5 5 5 5 4 4 4 4 4 3 3 3
13 13 13 13 12 12 11 11 11 11 10 10 10 9 9 8 8 8 7 7 7 7 6 6 6 6 5 5 5 5 5 5 4 4 4 4 4 3 3 3 2 2 2
12 12 12 12 11 11 11 10 10 10 10 9 9 9 8 8 7 7 7 7 6 6 6 5 5 5 5 5 5 4 4 4 4 4 3 3 3 3 2 2 1 1 1
11 11 11 11 11 10 10 10 9 9 9 9 8 8 7 7 7 7 6 6 6 6 5 5 5 5 4 4 4 4 3 3 3 3 3 2 2 2 1 1 1 1 0
10 10 10 10 10 10 9 9 9 8 8 8 7 7 7 7 6 6 6 6 6 5 5 5 4 4 4 3 3 3 3 3 3 2 2 2 1 1 1 0 0 -0 -0
Wind_Speed
4 3 3 2 1 2 1 1 2 3 2 2 1 2 2 2 2 1 0 1 1 1 1 1 1 1 1 1 1 1 2 2 1 1 1 2 2 2 2 3 4 6 9
4 3 2 3 3 2 1 1 2 2 2 2 1 2 2 2 2 1 1 1 1 1 1 0 1 1 1 1 1 1 1 2 2 2 1 1 1 2 2 3 3 5 6
5 3 3 3 2 1 1 1 2 2 2 2 1 2 2 2 2 2 1 1 1 0 0 0 0 1 0 1 1 1 1 1 1 1 1 1 1 1 1 1 2 1 3
7 5 4 3 3 2 1 1 1 2 2 2 2 1 1 2 3 3 2 2 1 1 1 1 1 1 1 1 0 1 0 0 1 1 1 1 1 1 1 1 1 1 2
8 7 5 3 3 2 2 1 1 2 2 2 2 2 2 2 3 4 4 3 2 1 1 1 1 2 3 2 0 1 1 1 1 1 1 1 1 1 1 1 1 1 2
8 7 5 3 3 2 2 1 1 1 2 2 2 2 2 3 4 5 4 4 3 1 1 0 1 2 3 2 1 1 1 1 1 1 1 1 2 1 1 1 1 0 1
8 7 7 5 4 3 2 2 1 1 0 1 1 1 1 2 3 4 5 4 3 2 1 0 0 1 3 2 1 2 2 3 3 2 2 2 2 1 1 1 1 2 2
8 8 8 6 5 4 3 2 2 1 1 1 1 0 1 1 1 3 5 4 3 2 1 1 1 1 2 2 0 1 1 1 2 1 2 2 1 1 1 2 2 2 2
8 8 8 8 7 5 5 4 3 2 1 1 1 2 1 1 0 1 3 3 2 2 0 1 1 2 4 4 1 1 1 1 1 1 1 1 2 2 1 1 1 1 2
9 9 8 8 7 6 6 4 4 3 3 2 2 2 1 2 1 1 2 2 3 2 1 2 4 3 4 4 2 1 1 2 1 1 1 2 2 2 3 4 3 3 2
9 8 7 8 8 7 5 4 4 4 3 3 3 2 2 2 3 1 1 1 3 3 2 2 2 4 4 4 3 1 1 2 2 1 1 1 1 1 1 2 2 3 2
9 8 8 8 7 7 6 5 4 4 4 4 3 2 2 3 4 2 1 0 2 2 2 2 2 4 3 3 2 3 4 3 2 1 1 1 2 2 2 2 2 1 1
9 9 8 8 6 6 7 6 4 4 3 3 2 2 2 2 3 3 2 1 1 0 1 2 2 2 1 1 2 4 4 2 2 2 2 2 2 2 2 2 3 3 3
10 9 8 8 7 6 5 4 3 2 2 1 1 1 2 3 3 1 0 1 0 0 0 0 1 1 2 3 3 3 2 2 2 1 1 2 2 2 2 2 2 3 2
10 10 9 8 7 6 5 3 3 3 3 2 1 2 2 3 2 3 2 2 2 2 1 1 2 2 3 3 3 4 4 4 4 3 3 3 3 2 2 2 1 2 2
9 10 8 7 7 7 7 5 7 5 6 7 7 5 4 6 5 5 6 6 5 4 3 2 3 3 3 3 3 3 4 4 4 3 3 3 3 3 3 3 3 2 2
8 8 7 8 8 8 8 8 6 4 5 6 7 8 7 7 6 5 5 5 5 4 4 3 3 3 3 3 3 3 3 3 4 4 4 4 4 4 4 4 4 4 4
7 8 8 7 8 8 8 8 8 8 6 3 3 6 8 7 6 4 3 3 3 3 3 3 3 3 3 3 3 3 3 3 3 3 3 4 4 4 4 4 4 4 4
7 6 7 7 7 7 7 7 7 9 8 7 6 4 6 6 4 3 3 2 3 3 3 3 2 3 3 3 3 3 3 3 3 3 3 3 4 4 4 4 4 5 4
6 8 8 6 7 7 7 7 7 7 8 7 7 6 6 5 3 3 2 2 3 3 3 3 3 3 3 3 3 3 3 3 3 3 3 3 4 4 4 5 4 4 4
5 7 10 7 6 6 6 7 7 7 7 7 6 8 9 5 5 5 4 3 3 3 3 4 4 4 3 3 3 3 3 3 4 4 4 4 4 4 4 4 4 4 4
5 5 6 6 5 5 5 6 6 7 8 8 6 7 10 5 5 5 4 4 4 4 4 4 4 4 4 3 3 3 4 4 4 4 4 4 4 4 4 4 4 5 5
5 6 6 6 6 7 6 5 6 7 7 8 8 7 6 5 5 5 5 5 5 4 4 4 4 4 4 5 5 4 4 4 3 4 4 4 4 4 4 4 5 5 5
4 5 6 6 6 6 6 6 6 7 7 7 7 7 6 6 5 6 5 5 5 5 4 4 5 6 6 5 6 7 7 6 6 5 4 4 4 4 4 4 5 6 6
4 4 5 6 6 7 7 6 6 7 7 7 7 7 6 6 6 6 6 6 6 5 5 5 5 6 7 7 7 7 8 7 6 5 4 3 4 4 5 6 5 6 6
4 4 5 5 6 7 7 7 7 7 7 7 8 7 7 7 6 6 6 6 6 5 5 4 6 6 8 8 9 8 6 5 4 5 5 3 3 4 5 5 7 7 7
Wind_Direction
187 188 178 163 219 231 239 295 294 298 313 326 341 343 12 19 19 59 312 336 311 302 287 222 248 225 184 216 210 205 199 183 213 262 271 217 192 185 181 203 196 196 202
176 183 179 191 204 221 226 262 283 303 312 326 4 34 35 19 16 24 14 322 298 326 313 317 291 274 177 219 205 214 203 192 183 220 250 239 212 198 193 204 200 204 199
169 188 208 202 168 193 274 342 319 330 335 336 26 47 31 21 19 7 8 342 300 207 178 119 354 15 73 215 202 220 228 217 182 198 227 240 237 207 195 224 220 206 209
165 186 213 203 168 179 140 307 326 337 335 345 22 52 37 29 17 6 353 340 9 43 50 68 58 55 48 18 356 321 296 251 251 225 223 226 225 229 181 204 242 245 239
171 186 195 196 165 154 158 183 39 337 334 9 15 20 27 35 24 19 355 348 2 27 25 54 90 111 106 113 117 330 334 265 255 238 248 259 242 198 196 213 213 256 279
175 179 167 176 154 158 176 136 82 321 337 12 15 15 29 32 31 30 10 336 332 355 39 81 147 151 153 150 162 201 208 225 239 240 244 244 249 216 184 186 169 166 279
175 167 162 173 165 172 168 138 178 216 208 335 343 16 60 52 39 13 357 331 313 325 2 60 14 111 139 165 192 204 225 244 238 228 235 247 262 240 197 219 217 222 242
174 165 163 165 167 168 161 168 209 195 171 219 250 270 122 91 55 352 338 307 291 295 271 209 208 87 74 73 226 216 223 256 259 225 219 244 264 255 207 219 223 260 280
171 168 167 169 169 170 179 188 192 199 212 218 224 225 209 158 155 350 350 306 293 294 327 54 68 73 61 51 36 302 259 269 258 153 196 255 274 278 240 194 228 233 273
172 172 171 165 164 174 187 189 185 189 206 215 224 223 198 146 144 49 358 316 319 335 39 83 77 70 61 46 35 7 354 324 352 351 319 295 272 253 234 205 206 220 245
163 164 162 161 168 175 178 182 189 189 197 212 225 216 171 139 137 121 62 358 334 342 14 50 60 68 63 45 39 45 320 316 308 288 269 283 300 297 250 234 218 205 219
153 161 167 168 177 175 171 187 196 191 197 211 217 217 175 146 134 146 138 28 345 354 2 45 65 67 53 35 26 359 348 351 334 326 353 10 6 349 340 322 307 294 249
158 166 171 173 177 168 170 182 191 195 196 205 197 191 166 137 131 137 145 108 10 40 48 55 75 62 13 28 14 5 8 6 4 15 16 6 353 344 353 356 356 355 346
169 174 178 181 175 167 159 161 162 167 179 189 173 159 135 104 80 62 153 159 112 85 267 59 75 56 37 21 15 18 31 35 36 35 4 349 352 6 4 3 359 352 350
181 180 184 182 170 157 136 112 138 117 145 154 124 97 103 107 84 63 69 67 71 80 58 63 58 54 53 53 45 38 35 33 31 19 22 18 13 12 357 353 3 359 355
190 186 183 175 165 157 144 119 72 104 108 106 106 112 94 106 116 93 81 74 70 68 79 81 71 65 62 55 47 39 40 33 22 25 30 28 19 13 5 2 5 8 352
195 184 176 173 170 166 162 158 149 111 86 93 107 114 121 126 118 107 91 71 60 67 84 88 81 70 65 64 56 51 48 38 32 32 34 29 22 17 15 10 4 3 357
199 188 175 172 171 172 172 170 167 166 163 152 132 139 141 142 139 136 124 94 74 77 89 93 91 82 75 71 68 55 47 44 40 32 28 25 19 14 9 4 360 358 349
196 184 176 170 169 172 170 168 168 169 162 155 151 160 170 161 157 155 141 131 120 112 105 97 89 87 82 75 70 63 58 53 43 33 28 22 16 12 3 355 349 349 351
190 183 169 168 171 172 171 170 169 167 163 161 161 161 165 167 164 154 144 133 127 124 120 114 97 86 79 70 59 53 52 49 41 35 24 20 15 13 3 356 351 347 341
182 178 172 174 177 176 176 174 169 163 161 159 154 156 161 167 163 154 152 144 135 131 123 116 109 96 83 72 61 52 50 47 42 35 26 15 11 5 357 351 344 342 338
180 175 177 175 169 172 173 168 162 158 155 150 147 150 158 161 156 149 145 140 129 119 114 111 106 101 91 77 64 62 59 51 41 30 17 6 358 353 351 349 345 340 340
179 178 179 169 162 162 166 162 158 156 155 153 152 154 161 160 149 144 141 134 125 116 109 108 109 100 88 77 69 69 69 59 44 30 12 357 348 342 340 337 334 333 333
185 183 179 170 162 164 167 165 160 156 153 152 151 154 157 154 150 145 138 128 122 119 117 115 114 111 103 95 87 81 76 62 41 24 7 347 339 334 331 326 323 322 320
188 183 179 176 170 168 166 164 162 159 157 157 157 156 155 152 148 144 137 132 128 124 119 113 113 111 108 101 97 98 91 70 45 16 346 331 327 328 327 323 319 316 314
190 185 183 179 174 170 168 167 167 165 164 161 159 157 152 148 144 139 135 131 127 125 121 116 120 122 118 108 109 109 94 67 32 2 339 319 316 319 320 315 315 314 312
Height
1488 1489 1489 1489 1489 1489 1488 1487 1487 1486 1485 1484 1483 1481 1480 1479 1478 1477 1477 1477 1477 1477 1478 1478 1479 1480 1481 1482 1483 1484 1485 1486 1486 1487 1488 1489 1490 1491 1492 1494 1495 1496 1498
1486 1487 1488 1488 1487 1487 1487 1486 1486 1485 1485 1484 1483 1482 1480 1479 1478 1477 1477 1476 1476 1476 1477 1477 1478 1478 1479 1480 1481 1482 1483 1484 1485 1485 1486 1487 1488 1489 1490 1491 1492 1494 1495
1484 1485 1486 1486 1486 1486 1486 1485 1485 1485 1484 1483 1482 1481 1480 1479 1478 1477 1477 1476 1476 1476 1476 1476 1476 1477 1478 1479 1479 1480 1481 1482 1483 1484 1484 1485 1486 1488 1488 1489 1490 1491 1492
1482 1483 1484 1485 1485 1485 1484 1484 1484 1483 1483 1483 1482 1481 1480 1479 1478 1477 1477 1476 1476 1476 1476 1476 1476 1476 1476 1477 1478 1478 1479 1480 1481 1482 1483 1484 1485 1486 1486 1487 1488 1489 1490
1480 1481 1482 1483 1483 1483 1483 1483 1482 1482 1482 1482 1481 1480 1480 1479 1478 1477 1477 1476 1476 1476 1476 1475 1475 1475 1476 1476 1476 1477 1478 1479 1479 1480 1481 1482 1483 1483 1484 1485 1486 1486 1487
1477 1478 1479 1480 1481 1481 1481 1481 1481 1481 1481 1481 1480 1480 1479 1478 1478 1477 1477 1476 1476 1476 1475 1475 1475 1475 1475 1475 1475 1476 1477 1477 1478 1478 1479 1480 1480 1481 1482 1483 1483 1484 1484
1475 1476 1477 1478 1479 1479 1479 1480 1479 1479 1479 1479 1479 1479 1478 1478 1477 1477 1476 1476 1476 1475 1475 1475 1475 1475 1474 1475 1475 1475 1475 1476 1477 1477 1477 1478 1478 1479 1479 1480 1481 1481 1481
1472 1473 1474 1475 1476 1477 1477 1478 1478 1478 1478 1478 1478 1478 1477 1477 1476 1476 1476 1475 1475 1475 1475 1474 1474 1474 1474 1474 1474 1474 1474 1475 1475 1475 1475 1476 1476 1477 1477 1478 1478 1478 1479
1468 1470 1471 1472 1473 1474 1475 1476 1476 1476 1477 1477 1477 1477 1476 1476 1476 1475 1475 1474 1474 1474 1474 1474 1473 1473 1473 1473 1473 1473 1473 1474 1474 1474 1474 1474 1474 1475 1475 1475 1475 1476 1476
1464 1466 1468 1469 1470 1471 1472 1473 1474 1475 1475 1475 1475 1475 1475 1475 1474 1474 1474 1473 1473 1473 1473 1473 1473 1472 1472 1472 1472 1472 1472 1472 1472 1473 1473 1472 1472 1473 1473 1473 1473 1473 1473
1461 1463 1465 1466 1467 1469 1470 1471 1472 1473 1473 1473 1474 1474 1474 1473 1473 1473 1472 1472 1472 1472 1471 1471 1471 1471 1471 1471 1471 1471 1471 1471 1471 1471 1471 1471 1471 1471 1471 1471 1471 1471 1471
1457 1459 1461 1463 1464 1466 1467 1468 1469 1470 1471 1471 1472 1472 1472 1471 1471 1471 1471 1471 1470 1470 1470 1470 1470 1470 1470 1469 1469 1469 1469 1469 1469 1470 1470 1470 1469 1469 1469 1468 1468 1468 1469
1453 1455 1457 1459 1461 1462 1463 1465 1466 1467 1468 1469 1469 1470 1470 1469 1469 1469 1469 1469 1469 1468 1468 1468 1468 1468 1468 1468 1468 1468 1468 1468 1468 1468 1468 1468 1468 1467 1467 1467 1466 1465 1465
1448 1450 1453 1455 1457 1458 1459 1461 1462 1463 1464 1465 1466 1467 1467 1467 1467 1467 1467 1467 1467 1466 1467 1467 1467 1467 1467 1467 1467 1467 1467 1467 1466 1466 1466 1466 1466 1465 1465 1464 1463 1463 1462
1444 1446 1448 1450 1452 1453 1455 1457 1458 1459 1461 1462 1462 1463 1464 1464 1464 1465 1465 1464 1464 1464 1465 1465 1465 1465 1465 1465 1465 1465 1465 1465 1464 1464 1464 1464 1464 1463 1463 1462 1461 1461 1460
1439 1441 1443 1445 1447 1449 1450 1452 1453 1455 1457 1458 1459 1460 1460 1461 1461 1462 1462 1462 1462 1462 1463 1463 1463 1463 1463 1463 1464 1463 1463 1463 1463 1462 1462 1462 1461 1461 1460 1460 1459 1459 1458
1434 1435 1437 1439 1441 1443 1445 1447 1448 1450 1452 1453 1454 1455 1456 1457 1458 1458 1459 1459 1460 1460 1460 1460 1461 1461 1462 1462 1462 1462 1462 1461 1461 1461 1460 1460 1459 1459 1458 1457 1457 1456 1455
1428 1430 1432 1434 1436 1438 1439 1441 1444 1445 1447 1448 1450 1451 1452 1454 1454 1455 1456 1457 1457 1457 1458 1459 1459 1460 1460 1460 1460 1460 1460 1460 1459 1459 1458 1458 1457 1457 1456 1455 1455 1454 1453
1422 1424 1426 1428 1430 1432 1434 1437 1439 1441 1442 1444 1445 1447 1449 1450 1451 1452 1453 1454 1454 1455 1456 1457 1457 1458 1458 1458 1458 1458 1458 1458 1457 1457 1456 1456 1455 1455 1454 1453 1452 1451 1450
1416 1418 1420 1422 1424 1427 1429 1431 1433 1436 1438 1439 1441 1443 1445 1446 1447 1449 1450 1451 1452 1453 1454 1454 1455 1455 1456 1456 1456 1456 1456 1456 1455 1455 1454 1453 1453 1452 1451 1450 1449 1448 1447
1410 1412 1414 1417 1419 1421 1424 1426 1428 1430 1432 1435 1437 1439 1441 1443 1444 1446 1447 1448 1449 1450 1451 1452 1453 1453 1453 1453 1453 1453 1453 1453 1453 1452 1451 1451 1450 1449 1448 1447 1446 1445 1443
1404 1407 1408 1410 1413 1416 1419 1421 1423 1425 1427 1430 1432 1435 1437 1439 1441 1442 1444 1445 1446 1447 1448 1449 1450 1450 1450 1451 1450 1450 1450 1450 1449 1449 1448 1448 1447 1446 1445 1443 1442 1441 1440
1399 1401 1403 1405 1408 1411 1414 1417 1419 1421 1423 1425 1428 1430 1433 1435 1437 1439 1441 1442 1443 1444 1445 1446 1446 1447 1447 1447 1447 1447 1447 1447 1446 1446 1445 1444 1443 1442 1441 1440 1438 1437 1436
1394 1396 1398 1400 1402 1405 1408 1411 1414 1416 1418 1421 1423 1426 1428 1431 1433 1435 1437 1438 1440 1441 1442 1443 1443 1443 1444 1444 1444 1444 1443 1443 1443 1442 1441 1440 1439 1437 1436 1435 1434 1433 1432
1389 1391 1393 1395 1397 1400 1403 1406 1409 1411 1414 1416 1419 1421 1424 1426 1429 1431 1433 1434 1436 1437 1438 1439 1439 1440 1440 1440 1440 1440 1439 1439 1439 1438 1437 1436 1434 1433 1432 1431 1430 1429 1427
1384 1386 1388 1390 1393 1395 1398 1400 1404 1406 1409 1412 1414 1417 1420 1422 1425 1427 1428 1430 1432 1433 1434 1435 1435 1436 1436 1436 1436 1436 1436 1435 1434 1433 1432 1431 1430 1429 1428 1427 1425 1424 1423